| time (UTC) | temp F | wind direction | speed knots | gust knots | rain 1hr in | rain 24hr in | rain mn in | humidity % | barometer mb |
| 20260504231812 | 60 | 270 | 0.0 | 0.0 | 0.00 | 0.00 | 0.00 | 76 | 996.5 |
| 20260504230311 | 61 | 270 | 0.0 | 0.0 | 0.00 | 0.00 | 0.00 | 76 | 996.4 |
| 20260504223310 | 62 | 270 | 0.0 | 0.0 | 0.00 | 0.00 | 0.00 | 76 | 996.0 |
| 20260504221810 | 63 | 270 | 0.0 | 0.0 | 0.00 | 0.00 | 0.00 | 76 | 995.9 |
| 20260504220309 | 63 | 270 | 0.0 | 0.0 | 0.00 | 0.00 | 0.00 | 76 | 995.7 |
| 20260504214809 | 64 | 270 | 0.0 | 0.0 | 0.00 | 0.00 | 0.00 | 76 | 995.5 |
| 20260504213308 | 64 | 270 | 0.0 | 0.0 | 0.00 | 0.00 | 0.00 | 77 | 995.2 |
| 20260504211808 | 65 | 270 | 0.0 | 0.0 | 0.00 | 0.00 | 0.00 | 77 | 995.5 |
| 20260504210307 | 65 | 270 | 0.0 | 0.0 | 0.00 | 0.00 | 0.00 | 77 | 995.4 |
| 20260504204807 | 65 | 270 | 0.0 | 0.0 | 0.00 | 0.00 | 0.00 | 78 | 995.3 |
| 20260504203306 | 65 | 270 | 0.0 | 0.0 | 0.00 | 0.00 | 0.00 | 78 | 995.0 |
| 20260504201806 | 66 | 270 | 0.0 | 0.0 | 0.00 | 0.00 | 0.00 | 78 | 994.9 |
| 20260504200305 | 66 | 270 | 0.0 | 0.0 | 0.00 | 0.00 | 0.00 | 79 | 994.7 |
| 20260504194804 | 66 | 270 | 0.0 | 0.0 | 0.00 | 0.00 | 0.00 | 79 | 994.5 |
| 20260504193304 | 66 | 270 | 0.0 | 0.0 | 0.00 | 0.00 | 0.00 | 81 | 994.5 |
| 20260504191803 | 66 | 270 | 0.0 | 0.0 | 0.00 | 0.00 | 0.00 | 81 | 994.4 |
| 20260504190303 | 66 | 270 | 0.0 | 0.0 | 0.00 | 0.00 | 0.00 | 82 | 994.4 |
| 20260504184802 | 66 | 270 | 0.0 | 0.0 | 0.00 | 0.00 | 0.00 | 84 | 994.3 |
| 20260504183302 | 66 | 270 | 0.0 | 0.0 | 0.00 | 0.00 | 0.00 | 86 | 994.4 |
| 20260504181801 | 65 | 270 | 0.0 | 0.0 | 0.00 | 0.00 | 0.00 | 86 | 994.4 |
| 20260504180301 | 65 | 270 | 0.0 | 0.0 | 0.00 | 0.00 | 0.00 | 87 | 994.4 |
| 20260504174800 | 64 | 270 | 0.0 | 0.0 | 0.00 | 0.00 | 0.00 | 87 | 994.2 |
| 20260504173300 | 63 | 270 | 0.0 | 0.0 | 0.00 | 0.00 | 0.00 | 88 | 993.8 |
| 20260504171759 | 62 | 270 | 0.0 | 0.0 | 0.00 | 0.00 | 0.00 | 88 | 993.9 |
| 20260504170258 | 60 | 270 | 0.0 | 0.0 | 0.00 | 0.00 | 0.00 | 88 | 993.9 |
| 20260504160256 | 55 | 270 | 0.0 | 0.0 | 0.00 | 0.00 | 0.00 | 89 | 993.2 |
| 20260504150254 | 50 | 270 | 0.0 | 0.0 | 0.00 | 0.00 | 0.00 | 89 | 992.8 |
| 20260504140252 | 48 | 270 | 0.0 | 0.0 | 0.00 | 0.00 | 0.00 | 87 | 992.1 |
| 20260504130250 | 46 | 270 | 0.0 | 0.0 | 0.00 | 0.00 | 0.00 | 87 | 990.9 |
| 20260504120248 | 44 | 270 | 0.0 | 0.0 | 0.00 | 0.00 | 0.00 | 85 | 989.9 |
| 20260504100243 | 42 | 270 | 0.0 | 0.0 | 0.00 | 0.00 | 0.00 | 85 | 987.0 |
| 20260504081739 | 41 | 270 | 0.0 | 0.0 | 0.00 | 0.00 | 0.00 | 82 | 984.2 |
| 20260504080239 | 41 | 270 | 0.0 | 0.0 | 0.00 | 0.00 | 0.00 | 82 | 983.8 |
| 20260504070237 | 41 | 270 | 0.0 | 0.0 | 0.00 | 0.00 | 0.00 | 81 | 982.5 |
| 20260504060234 | 42 | 270 | 0.0 | 0.0 | 0.00 | 0.00 | 0.00 | 83 | 980.6 |
| 20260504050232 | 42 | 270 | 0.0 | 0.0 | 0.00 | 0.00 | 0.00 | 84 | 979.2 |
| 20260504044732 | 42 | 270 | 0.0 | 0.0 | 0.00 | 0.00 | 0.00 | 84 | 979.3 |
| 20260504043231 | 42 | 270 | 0.0 | 0.0 | 0.00 | 0.00 | 0.00 | 83 | 979.1 |
| 20260504040230 | 42 | 270 | 0.0 | 0.0 | 0.00 | 0.00 | 0.00 | 82 | 979.1 |
| 20260504034730 | 42 | 270 | 0.0 | 0.0 | 0.00 | 0.00 | 0.00 | 82 | 979.1 |
| 20260504033229 | 42 | 270 | 0.0 | 0.0 | 0.00 | 0.00 | 0.00 | 82 | 979.2 |
| 20260504030228 | 42 | 270 | 0.0 | 0.0 | 0.00 | 0.00 | 0.00 | 82 | 979.5 |
| 20260504024727 | 43 | 270 | 0.0 | 0.0 | 0.00 | 0.00 | 0.00 | 81 | 979.7 |
| 20260504023227 | 43 | 270 | 0.0 | 0.0 | 0.00 | 0.00 | 0.00 | 82 | 980.1 |
| 20260504020226 | 43 | 270 | 0.0 | 0.0 | 0.00 | 0.00 | 0.00 | 82 | 981.0 |
| 20260504014725 | 43 | 270 | 0.0 | 0.0 | 0.00 | 0.00 | 0.00 | 82 | 981.4 |
| 20260504013225 | 43 | 270 | 0.0 | 0.0 | 0.00 | 0.00 | 0.00 | 82 | 981.5 |
| 20260504011730 | 43 | 270 | 0.0 | 0.0 | 0.00 | 0.00 | 0.00 | 82 | 981.6 |
| 20260504010223 | 43 | 270 | 0.0 | 0.0 | 0.00 | 0.00 | 0.00 | 82 | 982.2 |
| 20260504004723 | 43 | 270 | 0.0 | 0.0 | 0.00 | 0.00 | 0.00 | 82 | 982.7 |
| 20260504000221 | 44 | 270 | 0.0 | 0.0 | 0.00 | 0.00 | 0.00 | 80 | 983.0 |
| 20260503234721 | 44 | 270 | 0.0 | 0.0 | 0.00 | 0.00 | 0.00 | 80 | 983.6 |